Location: Poprad
(49.0500°N, 20.3000°E)
Time: 06:57:10
(UTC+02:00)

CAS-6 - Pass Details

Date: 24 April 2024
Orbit: 607 x 628 km, 97.8° (Epoch: 24 May)

Event Time Altitude Azimuth Distance (km) Brightness Sun altitude
Exits shadow 22:07:06 36° 97° (E) 978 ? -19.5°
Maximum altitude 22:07:55 40° 69° (ENE) 911 ? -19.6°
Drops below altitude 10° 22:11:58 10° 360° (N) 1,988 ? -20.0°
Sets 22:14:14 0° 353° (N) 2,894 ? -20.2°
